Weather History for South Lake Tahoe, CA

Change the Weather History Date:

Thursday, February 7, 2013

  Actual Average Record
Temperature  
Mean Temperature 30 °F 30 °F  
Max Temperature 39 °F 43 °F 60 °F (1996)
Min Temperature 20 °F 17 °F -29 °F (1989)
Degree Days  
Heating Degree Days 35 35  
Month to date heating degree days 220 245  
Since 1 July heating degree days 4291 4527  
Cooling Degree Days 0 0  
Month to date cooling degree days 0 0  
Year to date cooling degree days 0 0  
Moisture  
Dew Point 16 °F    
Average Humidity 45    
Maximum Humidity 78    
Minimum Humidity 12    
Precipitation  
Precipitation 0.03 in - 1.57 in (1983)
Month to date precipitation 0.03  
Year to date precipitation 0.74  
Sea Level Pressure  
Sea Level Pressure 29.89 in    
Wind  
Wind Speed 9 mph (South)    
Max Wind Speed 28 mph    
Max Gust Speed 43 mph    
Visibility 6 miles    
Events Snow    
T = Trace of Precipitation, MM = Missing Value Source: NWS Daily Summary

Daily Weather History Graph

Daily Weather History Graph

Search for Another Location

Airport:

Trip Planner

Search our weather history database for the weather conditions in past years. The results will help you decide how hot, cold, wet, or windy it might be!

Date:

Astronomy

Feb. 07, 2013 Rise Set
Actual Time 6:59 AM PST 5:28 PM PST
Civil Twilight 6:32 AM PST 5:56 PM PST
Nautical Twilight 6:00 AM PST 6:28 PM PST
Astronomical Twilight 5:29 AM PST 6:59 PM PST
Moon 4:43 AM PST (2/7) 2:59 PM PST (2/7)
Length of Visible Light 11h 24m
Length of Day
10h 28m
Waning Crescent, 8% of the Moon is Illuminated
Feb 7
Waning Crescent
Feb 9
New
Feb 17
First Quarter
Feb 25
Full
Mar 4
Last Quarter

Hourly Weather History & Observations

Time (PST) Temp. Windchill Dew Point Humidity Pressure Visibility Wind Dir Wind Speed Gust Speed Precip Events Conditions
12:53 AM 34.0 °F - 8.1 °F 34% 29.99 in 10.0 mi Calm Calm - N/A   Clear
1:53 AM 33.1 °F - 5.0 °F 31% 29.96 in 10.0 mi Calm Calm - N/A   Clear
2:53 AM 35.1 °F 26.9 °F -0.9 °F 22% 29.93 in 10.0 mi SSE 11.5 mph 19.6 mph N/A   Clear
3:53 AM 37.0 °F 27.0 °F -2.0 °F 19% 29.89 in 10.0 mi South 18.4 mph 35.7 mph N/A   Clear
4:53 AM 37.9 °F 27.6 °F -11.0 °F 12% 29.90 in 10.0 mi SSW 20.7 mph 39.1 mph N/A   Clear
5:53 AM 37.9 °F 26.6 °F -9.9 °F 13% 29.89 in 10.0 mi SSW 25.3 mph 35.7 mph N/A   Clear
6:53 AM 37.9 °F 27.3 °F -9.9 °F 13% 29.89 in 10.0 mi SSW 21.9 mph 36.8 mph N/A   Scattered Clouds
7:53 AM 37.0 °F 27.7 °F -2.9 °F 18% 29.90 in 10.0 mi SSW 16.1 mph 31.1 mph N/A   Mostly Cloudy
8:53 AM 37.0 °F 27.7 °F -0.0 °F 21% 29.92 in 10.0 mi SSW 16.1 mph 26.5 mph N/A   Overcast
9:53 AM 34.0 °F 23.4 °F 14.0 °F 44% 29.95 in 10.0 mi SSW 17.3 mph 29.9 mph N/A   Overcast
10:53 AM 35.1 °F 25.2 °F 10.9 °F 37% 29.96 in 10.0 mi SSW 16.1 mph 25.3 mph N/A   Overcast
11:53 AM 35.1 °F 26.4 °F 8.1 °F 33% 29.94 in 10.0 mi SSW 12.7 mph 28.8 mph N/A   Overcast
12:31 PM 32.0 °F 23.0 °F 17.6 °F 55% 29.93 in 3.0 mi SSW 11.5 mph 24.2 mph 0.00 in Snow Light Snow
12:44 PM 33.8 °F 25.3 °F 17.6 °F 52% 29.92 in 9.0 mi SSW 11.5 mph 18.4 mph 0.00 in   Overcast
12:53 PM 34.0 °F 25.0 °F 17.1 °F 50% 29.90 in 10.0 mi South 12.7 mph 23.0 mph 0.00 in   Mostly Cloudy
1:08 PM 35.6 °F 27.1 °F 17.6 °F 48% 29.91 in 10.0 mi SSW 12.7 mph 23.0 mph N/A   Overcast
1:29 PM 33.8 °F 24.8 °F 21.2 °F 60% 29.90 in 2.5 mi SSW 12.7 mph - 0.00 in Snow Light Snow
1:32 PM 32.0 °F 23.6 °F 21.2 °F 64% 29.91 in 1.8 mi SSW 10.4 mph - 0.00 in Snow Light Snow
1:45 PM 30.2 °F 24.3 °F 23.0 °F 75% 29.90 in 0.5 mi SSW 5.8 mph - 0.00 in Snow Snow
1:53 PM 30.9 °F 23.5 °F 24.1 °F 76% 29.90 in 0.5 mi SSW 8.1 mph - 0.00 in Snow Snow
2:01 PM 30.2 °F 21.9 °F 24.8 °F 80% 29.90 in 0.2 mi SSW 9.2 mph - 0.00 in Snow Heavy Snow
2:24 PM 30.2 °F 22.6 °F 24.8 °F 80% 29.89 in 1.0 mi South 8.1 mph - 0.00 in Snow Light Snow
2:53 PM 30.9 °F 22.2 °F 25.0 °F 79% 29.88 in 0.5 mi South 10.4 mph - 0.00 in Snow Snow
3:19 PM 30.2 °F 22.6 °F 24.8 °F 80% 29.88 in 1.2 mi South 8.1 mph - 0.00 in Snow Light Snow
3:26 PM 30.2 °F 23.4 °F 24.8 °F 80% 29.87 in 1.2 mi South 6.9 mph - 0.00 in Snow Light Snow
3:30 PM 30.2 °F 21.9 °F 24.8 °F 80% 29.88 in 3.0 mi South 9.2 mph - 0.00 in Snow Light Snow
3:40 PM 30.2 °F 20.8 °F 24.8 °F 80% 29.88 in 0.8 mi SSW 11.5 mph 20.7 mph 0.01 in Snow Light Snow
3:50 PM 30.2 °F - 24.8 °F 80% 29.87 in 0.2 mi Calm Calm - 0.01 in Snow Heavy Snow
3:53 PM 30.0 °F 24.1 °F 25.0 °F 82% 29.85 in 0.2 mi South 5.8 mph - 0.02 in Snow Heavy Snow
4:01 PM 30.2 °F 25.4 °F 24.8 °F 80% 29.87 in 2.0 mi South 4.6 mph - 0.00 in Snow Light Snow
4:04 PM 30.2 °F - 24.8 °F 80% 29.86 in 5.0 mi Calm Calm - 0.00 in Snow Light Snow
4:12 PM 30.2 °F - 24.8 °F 80% 29.87 in 8.0 mi Calm Calm - 0.00 in   Overcast
4:20 PM 30.2 °F - 23.0 °F 75% 29.88 in 2.5 mi Calm Calm - 0.00 in Snow Light Snow
4:23 PM 30.2 °F 25.4 °F 23.0 °F 75% 29.88 in 0.8 mi Variable 4.6 mph - 0.00 in Snow Light Snow
4:34 PM 28.4 °F - 23.0 °F 80% 29.88 in 0.2 mi Calm Calm - 0.01 in Snow Heavy Snow
4:41 PM 28.4 °F - 21.2 °F 74% 29.88 in 0.5 mi Calm Calm - 0.01 in Snow Snow
4:47 PM 28.4 °F - 21.2 °F 74% 29.88 in 1.0 mi Calm Calm - 0.01 in Snow Light Snow
4:48 PM 28.0 °F - 21.9 °F 78% 29.87 in 1.0 mi Calm Calm - 0.01 in Snow Light Snow
4:54 PM 28.4 °F 20.4 °F 21.2 °F 74% 29.88 in 3.0 mi South 8.1 mph - 0.00 in Snow Light Snow
4:59 PM 28.4 °F 24.6 °F 21.2 °F 74% 29.89 in 5.0 mi Variable 3.5 mph - 0.00 in Snow Light Snow
5:02 PM 28.4 °F 22.2 °F 21.2 °F 74% 29.89 in 2.5 mi Variable 5.8 mph - 0.00 in Snow Light Snow
5:08 PM 28.4 °F 21.2 °F 19.4 °F 69% 29.88 in 0.8 mi Variable 6.9 mph - 0.00 in Snow Light Snow
5:19 PM 26.6 °F 15.2 °F 19.4 °F 74% 29.89 in 2.0 mi South 13.8 mph 19.6 mph 0.00 in Snow Light Snow
5:22 PM 28.4 °F 17.5 °F 17.6 °F 64% 29.88 in 5.0 mi South 13.8 mph 19.6 mph 0.00 in Snow Light Snow
5:34 PM 26.6 °F 15.2 °F 17.6 °F 69% 29.89 in 8.0 mi South 13.8 mph 21.9 mph 0.00 in   Overcast
5:53 PM 26.1 °F 15.6 °F 18.0 °F 71% 29.88 in 9.0 mi SSE 11.5 mph - 0.00 in   Overcast
6:53 PM 25.0 °F 17.1 °F 14.0 °F 63% 29.86 in 10.0 mi SSE 6.9 mph 18.4 mph N/A   Clear
7:53 PM 23.0 °F 17.0 °F 12.9 °F 65% 29.88 in 10.0 mi South 4.6 mph - N/A   Partly Cloudy
8:53 PM 21.9 °F 12.5 °F 12.9 °F 68% 29.86 in 10.0 mi SSW 8.1 mph - N/A   Clear
9:53 PM 21.0 °F 14.6 °F 12.9 °F 71% 29.86 in 10.0 mi SW 4.6 mph - N/A   Clear
10:53 PM 21.9 °F 15.7 °F 15.1 °F 75% 29.86 in 10.0 mi NNE 4.6 mph - N/A   Overcast
11:03 PM 21.2 °F - 15.8 °F 80% 29.84 in 10.0 mi Calm Calm - N/A   Overcast
11:53 PM 21.0 °F - 15.1 °F 78% 29.86 in 10.0 mi Calm Calm - N/A   Overcast